Wind_Speed
7 6 6 5 5 5 4 5 5 5 4 4 6 7 9 12 13 13 13 12 13 14 13 13 12 11 12 12 12 11 11 10 10 9 9 9 11 13 15 16 16 15 15 15 13 13 14 12 13 13 11 10 7 8 6 3 2 5 4 3 2 1 2 3 3 3 3 0 3 4 5 6 3 3 3 4 4 4 5 7 7 9 10 12 14 11 11 11
4 4 4 4 4 4 4 5 6 5 5 5 6 7 10 12 13 13 13 13 13 14 13 13 12 12 13 12 11 11 11 10 9 9 11 13 14 17 18 18 18 18 17 14 12 12 13 14 14 12 10 9 5 5 6 2 2 4 2 3 1 3 4 5 5 4 3 1 2 2 2 4 1 1 3 4 5 6 4 6 7 8 10 12 13 10 10 10
2 2 3 3 3 3 4 5 6 6 6 6 7 8 10 12 13 13 13 14 14 14 14 13 13 13 12 12 12 11 11 10 8 8 13 18 19 19 20 20 19 20 17 12 10 9 11 14 13 10 8 7 4 4 5 2 2 2 3 4 3 4 3 5 5 4 3 2 1 2 1 1 1 2 3 5 5 6 3 4 5 7 8 10 12 9 9 10
1 1 2 3 3 3 4 5 6 6 6 6 7 8 9 10 12 13 13 14 15 15 14 13 14 13 12 13 11 12 15 12 9 9 15 21 23 22 21 20 20 20 17 13 12 9 10 12 10 7 5 5 4 3 3 1 1 1 3 3 4 1 1 5 5 4 2 1 1 3 3 2 2 3 3 3 4 3 3 5 4 9 10 9 11 9 9 11
1 1 2 3 2 3 4 6 6 6 6 6 7 7 7 9 12 13 14 15 15 15 14 14 14 13 13 12 12 18 17 10 10 13 19 23 23 22 20 19 18 18 16 12 10 8 9 10 9 6 3 3 4 3 1 2 1 1 2 4 4 1 1 4 4 4 3 1 2 3 2 1 0 2 4 3 1 1 2 7 8 10 11 9 10 9 10 11
0 1 2 2 2 3 4 6 6 6 6 6 6 6 7 10 12 13 14 15 15 15 14 14 14 14 13 12 16 19 10 7 13 17 21 23 22 21 18 17 16 14 12 8 6 5 6 8 8 5 2 2 2 1 2 2 2 1 3 5 4 3 3 4 5 4 3 1 1 2 2 2 2 2 2 2 4 2 3 9 11 11 10 9 10 10 11 11
1 1 1 3 3 3 4 5 4 4 5 6 6 6 8 10 12 14 15 15 15 15 15 15 15 14 13 15 16 13 8 11 15 20 23 22 20 19 16 14 12 10 8 6 4 3 2 6 5 1 1 2 2 2 4 4 0 1 4 5 5 6 6 5 5 5 4 3 4 3 4 4 5 3 4 5 5 6 7 10 11 11 10 10 11 11 11 11
1 1 1 2 2 2 3 3 3 5 6 7 7 7 10 12 13 14 14 15 15 15 16 15 15 15 15 16 14 12 13 13 15 22 24 21 19 17 14 12 9 7 6 4 2 1 1 4 3 1 1 4 2 4 4 3 3 4 5 6 5 7 7 6 6 6 6 5 5 3 3 1 1 5 5 5 5 7 10 11 11 12 12 11 12 12 11 10
1 1 1 1 1 2 2 3 4 6 7 8 9 10 11 12 13 13 13 14 15 16 16 15 15 14 14 15 13 11 12 13 19 23 22 19 17 14 11 8 6 5 4 3 1 2 2 3 3 2 4 5 2 4 1 1 3 6 6 7 7 7 7 6 7 6 5 5 2 3 5 3 3 6 5 6 8 10 12 12 12 12 12 12 13 12 11 11
1 1 1 1 2 2 2 3 5 7 9 10 10 11 11 12 12 12 13 15 15 16 16 14 14 13 15 15 11 8 11 16 20 20 19 17 14 11 9 6 3 2 2 2 2 2 1 3 6 5 6 6 3 3 2 1 6 9 9 8 8 8 7 6 7 5 5 6 2 3 6 4 3 2 4 9 10 13 14 13 14 14 12 12 13 12 11 11
2 1 1 2 2 3 4 5 7 9 10 10 10 10 10 10 11 12 14 15 16 16 15 14 13 14 17 13 8 10 14 17 16 18 18 14 12 9 7 4 2 3 2 2 3 2 3 5 7 4 4 5 6 7 7 7 10 11 10 10 8 8 8 6 5 3 3 5 3 4 6 5 5 2 6 12 11 13 15 13 14 15 13 12 12 12 11 11
3 2 3 3 4 5 6 7 9 9 9 9 8 9 9 10 11 13 16 16 16 15 13 14 13 16 15 7 8 14 15 15 15 16 15 12 11 8 6 4 2 3 2 4 3 5 6 7 4 2 3 5 6 7 8 9 10 10 7 7 7 6 7 5 4 2 2 5 3 4 4 5 7 5 8 12 10 13 14 14 15 15 13 12 12 11 10 10
4 3 4 5 6 6 7 8 9 9 8 8 8 9 10 11 13 15 16 16 14 13 12 14 16 16 12 8 12 15 15 15 15 14 13 12 11 8 7 5 3 3 0 1 6 8 8 7 4 6 6 5 5 5 9 9 7 7 4 3 6 5 5 5 3 2 3 5 2 2 2 4 8 7 8 10 10 13 13 14 15 14 12 11 11 11 10 10
5 5 5 6 7 7 8 8 8 8 8 9 9 10 11 12 14 15 16 14 13 13 13 17 18 14 11 10 11 11 12 14 14 12 12 11 10 8 5 4 3 3 4 6 10 10 10 8 7 9 5 5 9 10 10 8 5 4 3 3 3 2 5 5 3 1 2 4 2 2 2 4 7 8 8 9 10 11 12 12 13 13 12 11 11 11 11 10
6 6 6 6 7 7 8 8 8 9 9 9 10 11 12 14 14 15 14 14 13 14 16 18 18 14 13 11 10 11 12 12 12 11 10 9 7 6 6 6 5 6 7 10 12 11 10 7 6 7 7 9 12 10 6 5 5 4 3 3 2 0 5 6 2 1 2 3 1 1 3 6 7 8 8 8 9 9 11 12 11 11 11 10 11 11 11 10
7 6 6 6 7 7 8 9 9 9 9 10 11 12 13 14 14 14 14 14 14 15 18 18 16 13 11 10 10 11 11 10 11 9 9 10 7 5 7 8 8 8 9 10 11 11 8 6 5 7 9 9 7 4 2 2 4 4 2 1 3 2 4 5 4 2 2 1 1 1 1 6 7 9 8 7 8 9 10 11 10 10 10 10 10 10 10 10
8 7 6 7 7 8 8 8 9 9 10 11 13 14 14 14 13 13 13 14 15 17 18 17 15 10 8 9 9 10 10 10 10 9 9 10 8 6 8 11 10 10 11 11 10 8 6 4 5 6 5 4 3 1 0 2 2 3 0 2 3 2 3 4 4 4 1 2 1 1 2 7 9 10 10 8 8 9 10 10 10 10 10 10 10 10 10 10
10 8 7 7 8 8 9 9 9 10 11 13 13 14 14 13 13 13 13 15 18 18 16 16 14 7 7 8 8 10 11 10 10 9 9 11 11 9 8 10 11 13 12 9 7 5 4 4 4 3 2 2 2 2 2 5 5 4 2 2 4 2 2 3 4 3 1 1 1 2 4 7 8 9 10 9 8 9 11 10 10 10 9 10 10 10 10 10
11 9 8 8 8 8 9 10 10 11 12 13 13 14 14 13 12 11 10 10 11 11 10 13 10 5 10 11 9 10 8 8 9 9 10 12 12 10 7 9 12 11 9 6 6 6 3 4 5 3 0 1 1 3 5 6 6 5 4 3 4 4 4 4 5 3 1 1 2 3 4 6 7 8 9 10 9 9 11 10 10 10 10 9 9 9 9 10
12 10 8 7 8 9 9 10 12 13 13 13 12 11 10 9 8 8 8 6 5 8 10 9 6 10 17 13 9 8 6 7 9 9 11 10 12 11 9 10 9 7 5 2 3 5 3 4 2 2 4 4 2 2 3 3 4 5 4 4 4 3 5 4 4 5 1 1 3 3 4 7 7 7 8 9 9 10 11 11 10 11 10 9 9 9 10 10
12 11 7 7 8 9 10 11 12 12 11 10 8 5 2 3 5 7 8 7 8 12 12 8 7 10 13 10 8 7 6 8 8 10 11 10 11 10 9 9 6 5 4 1 1 4 4 4 2 5 6 4 1 2 1 2 4 4 4 4 3 3 5 5 3 4 1 2 3 3 3 7 7 7 8 9 9 10 12 12 12 12 11 9 9 10 10 10
13 13 8 7 8 9 10 11 11 11 9 8 7 4 3 6 10 8 6 8 11 11 10 9 9 8 8 7 7 6 7 8 10 12 10 10 12 8 6 8 6 1 3 3 2 3 4 2 4 5 3 2 2 4 5 3 3 3 3 2 3 4 5 5 4 3 2 2 4 5 3 5 6 6 7 9 9 9 12 12 11 12 12 11 10 10 11 11
14 14 9 8 8 9 10 11 11 10 9 9 8 5 4 8 12 9 4 7 10 10 8 7 6 6 6 6 5 5 8 7 9 13 11 11 11 8 6 7 5 1 2 4 3 3 2 2 5 4 3 3 4 6 6 4 3 3 3 2 4 4 2 3 4 4 2 1 3 5 4 4 5 5 6 8 9 8 10 10 10 11 11 11 11 11 11 12
14 14 11 9 8 8 9 9 10 9 8 8 6 5 6 8 9 9 5 4 8 8 6 6 6 5 5 5 3 3 6 3 4 10 12 12 10 7 7 6 5 4 4 3 4 7 3 5 5 2 2 2 4 7 7 3 3 4 4 3 4 4 1 3 5 6 4 3 4 5 5 4 7 8 7 8 9 9 10 11 11 11 11 11 11 11 11 12
12 13 12 9 8 7 8 9 7 7 6 5 4 5 7 8 8 8 4 4 7 5 4 6 5 5 5 3 3 1 3 3 2 5 10 12 9 5 4 4 5 4 1 1 5 5 2 4 2 2 3 3 3 6 5 2 2 4 4 4 4 4 2 4 6 6 4 5 5 5 3 4 8 9 8 9 10 10 11 13 13 12 12 12 11 11 12 12
11 12 12 9 8 7 7 6 5 5 4 2 3 5 7 7 6 5 2 4 6 3 1 4 3 4 5 3 2 1 4 3 1 3 9 11 8 5 3 4 4 3 3 2 4 2 2 2 1 3 3 3 3 3 3 3 1 4 4 3 5 5 5 5 4 3 1 4 4 4 3 2 7 9 10 10 11 11 12 13 15 15 15 14 13 13 13 13
10 11 10 10 8 6 4 3 2 3 3 0 4 6 7 5 5 3 1 5 5 2 1 3 2 4 5 2 1 3 4 3 2 3 8 10 8 5 5 3 3 1 1 2 2 1 1 1 2 3 3 4 2 1 3 4 4 4 6 5 5 6 6 5 3 1 2 2 4 4 4 2 3 6 9 12 12 12 13 13 14 16 17 16 15 14 14 15
9 9 9 9 7 6 5 2 1 1 1 4 6 6 6 4 3 1 3 5 4 2 0 3 3 4 3 1 1 2 1 0 2 4 7 10 7 5 7 4 2 1 4 4 2 4 2 1 1 3 3 2 1 2 5 3 3 6 7 6 5 6 6 3 2 1 2 1 3 3 3 3 3 6 7 10 11 12 13 14 15 17 18 18 17 16 15 16
8 8 8 7 7 6 5 4 2 1 5 7 8 7 6 4 1 2 3 3 2 1 1 2 2 2 1 2 4 2 2 5 3 4 6 9 8 5 4 1 3 2 4 6 4 4 2 2 1 2 1 2 3 4 5 2 3 7 8 5 5 5 5 3 2 1 1 2 2 3 2 3 2 6 6 8 9 11 12 12 14 18 20 19 18 18 17 16
7 7 7 7 6 6 6 6 3 3 7 8 10 8 5 2 1 4 4 2 1 1 2 1 2 2 2 2 5 3 4 6 2 4 6 6 7 6 2 1 3 3 3 5 3 4 5 3 1 0 2 5 7 7 4 2 7 11 9 6 6 5 4 3 2 1 3 2 4 2 2 5 0 4 5 6 7 8 9 10 13 17 20 20 19 19 18 17
7 7 6 6 6 7 7 6 2 4 9 11 11 9 4 2 2 4 4 1 1 1 2 2 1 2 1 2 1 3 4 5 5 6 6 5 6 7 4 3 4 4 4 4 3 5 6 5 3 3 4 7 9 8 5 7 11 10 5 4 4 4 4 3 3 3 2 3 4 1 2 5 3 2 4 5 6 6 6 7 12 17 20 21 20 20 19 18
6 7 6 5 5 6 7 5 0 7 12 13 11 7 4 3 2 1 4 3 2 2 1 2 1 1 2 3 3 4 5 5 7 7 5 4 5 4 4 3 1 3 2 1 3 5 6 4 5 5 6 8 8 7 6 7 8 6 3 4 4 1 1 1 1 1 1 5 3 0 2 4 3 2 3 5 6 6 5 5 9 14 20 22 21 21 20 19
6 6 5 5 5 5 7 6 3 10 13 12 8 4 4 4 2 2 3 3 0 2 1 2 3 3 4 5 4 4 5 4 6 6 5 4 4 3 4 3 4 5 2 2 1 3 4 5 7 7 5 8 7 2 4 4 5 6 3 3 3 2 2 2 2 2 3 4 3 1 3 3 1 2 2 3 4 4 6 7 7 10 16 20 22 21 21 20
6 6 4 4 5 5 7 6 4 12 13 10 6 4 4 3 2 1 2 3 1 1 3 2 5 5 4 5 1 4 4 4 4 5 5 5 5 5 4 5 7 6 4 2 2 1 1 2 7 5 4 8 7 3 2 1 3 3 2 4 3 2 3 4 3 4 4 2 3 3 3 3 2 2 2 3 3 3 5 7 9 9 11 16 20 21 21 21
5 5 4 4 4 5 7 6 4 13 14 8 5 4 4 3 3 3 2 2 2 3 2 1 5 5 4 3 2 4 4 3 4 5 5 5 5 4 3 5 9 8 5 3 1 0 3 2 6 3 2 6 6 1 2 2 2 2 2 3 2 3 3 3 2 4 4 2 1 2 2 3 2 4 3 3 5 5 5 6 10 11 11 13 18 21 21 21
5 4 4 4 4 5 6 7 4 13 13 7 5 3 2 1 1 3 1 0 0 1 3 3 3 4 4 5 5 6 3 2 3 5 5 5 5 4 4 3 6 9 6 3 1 1 2 3 7 4 3 6 4 2 3 3 1 3 3 1 2 3 4 2 0 1 3 2 1 1 2 1 3 3 2 3 6 5 5 6 9 13 13 13 16 19 21 21
4 3 3 3 3 4 6 6 4 11 12 7 4 1 0 1 2 2 2 0 1 2 5 3 2 2 2 3 4 6 5 3 4 4 3 3 3 4 6 4 4 7 8 5 2 1 2 2 6 5 5 5 3 3 4 1 2 2 1 2 2 1 3 3 1 1 2 2 2 2 4 3 1 0 2 4 5 5 5 6 9 12 14 14 15 18 20 21
3 1 2 2 2 4 5 6 5 9 10 5 2 1 1 1 2 1 2 1 1 2 4 2 1 1 1 1 2 5 5 5 5 4 3 3 2 1 3 4 3 4 6 6 3 1 3 1 5 4 2 6 6 5 4 3 3 3 3 1 2 2 1 1 1 3 3 3 2 2 4 3 2 3 2 3 4 5 5 6 9 12 14 13 14 18 20 20
2 1 1 0 2 3 5 6 4 6 7 4 3 2 0 1 2 1 2 2 2 2 2 1 0 2 2 3 1 3 4 4 3 4 4 3 3 2 2 1 2 2 4 6 3 2 2 2 3 4 3 5 7 6 3 5 4 3 1 2 3 3 3 1 2 3 4 4 3 4 4 1 4 6 5 1 3 5 6 6 8 10 13 12 13 18 21 21
2 3 3 1 1 3 4 4 2 3 4 2 0 1 1 0 1 3 4 4 4 2 2 1 1 1 2 3 2 1 2 3 2 4 3 2 3 2 1 1 2 4 5 6 4 3 2 2 1 5 5 4 5 4 3 1 3 4 4 3 3 2 2 2 1 2 4 4 4 4 5 2 5 5 4 2 2 5 6 7 7 9 12 12 13 17 20 21
3 3 3 1 1 3 2 1 1 1 1 1 1 1 1 2 2 2 4 5 5 3 2 3 3 3 3 2 2 2 1 2 4 4 3 4 4 2 1 1 2 5 6 6 5 3 2 2 0 4 5 4 2 3 2 4 3 3 2 2 2 2 2 3 1 0 2 4 4 5 5 3 4 4 2 2 1 3 5 6 7 9 11 12 13 16 19 20
5 4 3 2 2 3 2 2 2 1 1 1 1 0 1 2 3 2 3 4 5 4 3 4 5 4 4 3 2 3 2 2 3 3 2 3 3 0 2 1 3 4 5 3 3 2 1 2 2 2 3 1 3 4 1 4 5 5 3 3 3 2 3 4 3 2 2 2 3 4 4 3 5 3 2 1 0 1 3 5 7 9 11 12 14 16 17 19
6 4 3 3 3 3 3 3 2 2 1 2 1 1 1 2 3 2 3 4 4 4 3 4 5 4 4 3 3 3 2 2 2 1 1 2 1 3 3 3 4 5 5 1 3 3 1 2 3 3 1 2 4 4 2 1 4 6 4 4 4 3 3 5 4 4 4 2 2 4 4 2 5 3 1 1 1 2 3 6 8 9 10 12 14 15 16 17
3 3 2 2 2 2 4 4 2 2 1 1 1 1 1 3 4 4 3 3 2 3 4 4 4 4 3 3 3 3 2 2 2 1 2 2 2 5 3 3 5 6 4 1 1 5 4 2 3 4 3 3 4 5 4 3 5 5 3 4 5 4 3 2 2 3 3 2 3 5 4 3 3 2 2 1 2 3 4 6 8 9 10 12 13 15 16 16
4 3 4 3 0 1 3 2 2 3 1 1 3 2 1 3 3 4 5 5 4 3 4 3 3 3 3 4 5 4 3 3 2 1 2 1 3 4 3 3 4 4 2 1 1 5 3 2 3 4 5 3 3 1 1 1 3 3 2 4 5 6 6 3 3 4 2 1 3 5 4 6 6 2 2 2 3 4 5 6 8 9 11 13 13 14 15 16
4 4 5 5 2 2 2 1 2 4 2 2 3 1 1 2 1 3 5 4 2 2 5 5 4 4 4 5 6 4 4 3 2 4 3 2 4 3 3 3 3 2 4 3 4 5 2 2 3 6 6 5 5 4 3 3 3 2 3 5 5 6 6 5 5 4 2 2 3 2 5 7 8 5 2 1 2 4 5 7 9 9 11 13 13 13 15 15
3 3 3 3 3 4 4 4 4 4 2 2 2 1 1 2 2 2 2 2 0 2 5 5 4 4 4 4 5 4 4 5 3 6 6 2 4 5 4 4 5 5 5 5 5 4 3 3 2 4 5 4 5 4 2 3 5 3 1 4 5 5 6 6 6 4 4 4 3 5 5 7 8 6 5 3 1 3 4 7 9 10 11 12 13 13 14 15
3 1 1 2 3 4 4 4 4 4 3 3 2 1 3 3 2 2 1 2 2 2 2 3 4 4 4 5 5 3 6 7 7 7 5 3 4 6 6 4 5 6 5 5 4 2 4 2 1 2 3 0 1 0 1 3 3 3 2 3 4 6 7 7 7 4 3 6 5 5 4 7 7 6 5 3 0 2 3 6 8 10 12 12 13 14 15 15
2 0 2 4 3 0 1 2 2 4 4 4 3 3 4 5 2 1 1 3 3 1 2 4 5 6 7 7 6 4 5 4 4 5 5 5 4 5 5 4 5 6 5 4 4 1 4 1 2 2 3 2 2 1 2 4 4 4 4 3 3 5 6 7 6 4 4 8 7 5 7 8 6 5 4 3 1 2 4 6 8 10 12 12 13 15 15 16
2 0 1 4 4 2 3 3 3 4 4 4 4 3 4 5 1 2 2 4 4 2 3 5 8 10 10 9 7 5 3 1 1 2 4 5 4 4 3 2 3 6 5 4 3 1 3 1 2 3 5 4 4 2 3 5 6 6 5 4 4 5 5 6 5 3 5 7 6 5 8 7 0 2 2 2 3 3 5 7 8 10 11 12 13 14 15 16
3 2 1 3 4 3 3 3 3 4 4 5 5 4 4 3 1 4 4 4 6 7 6 8 9 9 8 9 8 3 2 1 0 1 2 4 2 2 2 2 3 5 5 3 2 2 2 1 3 5 5 3 5 3 4 4 6 8 6 4 5 5 5 4 4 4 5 5 4 5 6 3 3 4 2 2 4 6 7 7 8 9 11 12 13 13 14 15
3 2 1 2 3 3 4 4 3 5 3 2 4 5 4 2 6 7 3 5 7 7 6 9 10 7 6 8 4 2 4 3 3 1 3 3 0 2 0 2 2 2 3 4 2 1 2 2 3 4 4 3 4 2 3 4 6 5 2 0 2 3 3 3 4 5 6 5 4 4 4 4 4 2 2 3 5 7 8 8 8 9 10 12 12 12 13 14
Wind_Direction
294 277 263 255 248 249 252 242 228 219 206 206 218 201 183 180 183 184 174 165 164 163 163 160 161 165 166 165 165 161 157 155 157 166 167 170 170 161 151 136 126 122 118 122 133 136 136 142 144 151 150 146 141 136 149 127 178 235 237 256 252 233 33 27 340 341 325 109 134 153 194 232 202 177 204 188 171 141 107 91 89 87 96 103 106 114 118 121
299 275 271 264 239 241 239 225 221 214 206 213 215 197 183 180 184 183 172 165 160 159 158 157 160 160 161 163 160 154 149 150 157 169 168 162 159 151 137 126 121 116 115 127 136 137 141 143 147 156 152 151 140 142 167 154 238 267 293 259 318 31 36 20 351 340 317 341 107 133 203 249 253 152 202 206 164 147 131 114 119 102 99 103 102 110 115 114
307 285 272 251 229 231 222 213 213 205 200 200 193 190 185 182 184 180 171 164 157 155 154 154 157 157 160 157 152 148 144 145 147 164 164 154 148 142 133 126 125 121 124 142 142 136 144 144 150 155 149 152 135 157 180 166 240 300 302 272 31 46 44 36 3 345 337 329 186 134 142 207 135 187 210 240 207 171 135 94 126 122 112 108 107 114 116 115
325 276 250 227 216 212 208 206 205 200 198 190 183 187 187 185 185 178 168 159 155 152 150 153 154 156 157 152 151 144 142 140 131 148 157 148 142 141 136 133 134 130 132 140 130 125 142 150 153 152 154 149 133 171 171 102 237 319 304 315 37 36 37 43 8 0 8 306 210 113 137 155 165 227 234 253 219 177 86 68 106 123 120 119 117 120 120 117
315 231 226 220 210 196 203 204 200 198 190 179 173 179 186 189 185 175 164 155 151 148 150 154 154 155 152 151 151 147 148 142 132 149 154 148 143 145 144 140 141 138 138 135 121 124 140 154 163 167 179 140 137 171 110 79 215 89 47 28 39 323 23 49 26 26 35 31 133 129 157 130 61 284 346 20 111 258 48 101 129 125 115 119 122 124 119 115
314 225 210 186 178 182 197 200 197 191 171 158 160 174 186 187 181 169 158 151 149 149 153 154 152 150 147 151 153 159 168 132 141 160 157 153 150 149 150 145 145 142 142 136 131 139 144 168 175 169 172 119 117 127 99 130 237 230 80 60 49 42 59 63 48 50 52 66 109 109 117 134 194 177 75 101 138 164 80 106 131 127 116 122 125 122 116 115
74 190 171 149 160 183 203 208 200 173 146 141 150 169 181 180 175 163 155 152 151 153 154 151 148 144 146 154 155 167 158 117 147 165 158 158 155 153 154 148 147 140 141 147 152 149 149 192 192 168 142 95 63 100 113 122 69 300 108 94 72 68 73 70 64 67 64 67 72 105 144 190 211 166 131 146 133 124 107 112 131 126 122 129 125 117 110 110
120 121 123 145 167 194 208 206 182 149 133 135 147 164 172 173 168 161 158 155 153 153 150 147 146 146 147 149 148 147 127 122 157 162 158 162 157 157 156 151 151 139 151 169 169 173 186 190 182 311 48 72 83 120 122 128 80 72 117 121 100 83 76 72 74 77 75 84 90 130 146 200 160 96 103 115 108 132 126 123 135 129 126 125 117 112 108 108
130 112 125 166 169 187 191 178 158 137 129 134 145 159 167 172 168 164 160 153 152 148 145 144 145 151 150 148 154 138 118 139 160 159 160 161 157 160 157 157 158 145 177 206 228 265 261 171 134 5 49 77 92 113 112 259 79 90 118 125 112 94 82 76 75 77 80 92 118 133 98 66 87 94 101 98 102 129 129 126 129 122 120 119 113 113 114 112
85 108 144 150 143 160 159 151 138 127 129 136 148 161 171 175 168 161 154 149 146 142 143 146 143 145 145 151 163 136 129 151 157 163 165 161 160 160 159 166 154 156 200 232 252 260 258 145 120 84 80 86 75 76 37 29 101 112 117 109 103 94 87 83 83 93 93 90 125 123 101 109 120 103 108 107 110 123 126 126 123 120 122 120 115 115 117 115
34 71 103 111 118 124 126 124 121 123 128 137 151 166 172 168 160 154 147 143 141 139 139 140 136 136 144 161 164 127 142 155 157 168 169 169 175 169 174 173 124 169 220 278 252 207 164 136 129 109 90 94 89 85 80 98 117 122 121 106 99 95 93 92 90 110 120 97 85 91 109 122 113 83 97 110 122 123 122 120 117 122 124 118 114 114 116 117
30 51 74 88 99 105 112 114 117 122 127 139 154 163 164 157 153 147 140 137 137 138 133 129 129 129 136 149 120 127 153 159 157 170 173 179 187 190 197 189 159 176 262 285 203 161 148 138 139 67 86 123 115 103 105 119 126 126 135 117 114 116 98 88 88 98 127 114 72 64 107 106 89 90 99 109 121 122 123 122 118 120 120 117 115 116 119 123
38 54 72 85 93 100 107 111 114 119 127 140 152 155 154 149 145 140 133 130 128 126 123 122 125 126 122 99 106 133 159 159 156 168 173 176 181 190 191 187 189 161 6 214 146 136 134 129 105 81 101 128 107 112 124 136 146 139 161 147 143 147 107 85 90 112 126 126 106 51 91 83 85 103 109 112 122 126 127 125 121 120 119 121 120 120 123 126
42 58 77 86 93 99 103 108 110 118 130 140 148 149 146 142 138 130 125 121 113 111 119 126 124 118 108 96 106 133 150 156 162 166 174 176 172 175 178 178 170 126 102 127 127 122 122 121 111 101 98 102 114 132 134 147 174 149 155 174 186 179 108 98 89 138 143 143 165 28 91 100 95 105 110 118 129 130 127 124 124 122 124 127 126 123 123 124
46 63 80 85 91 98 101 105 110 122 132 138 143 141 138 135 129 123 117 109 102 108 122 129 128 121 115 103 103 123 132 146 157 160 166 159 148 160 175 173 151 118 111 122 122 119 122 122 114 103 94 114 141 152 138 153 164 141 162 167 179 102 110 117 104 33 59 131 176 347 108 108 100 103 108 124 135 132 128 127 127 124 126 128 126 124 122 126
53 70 81 80 88 97 100 106 114 127 134 138 139 136 133 129 123 117 108 101 99 111 126 131 135 137 129 113 109 122 126 135 146 149 147 138 137 165 165 155 140 122 121 126 123 120 123 115 104 114 121 136 162 159 121 185 155 153 212 94 89 103 128 139 132 88 9 37 109 309 86 99 108 114 113 127 139 138 132 129 130 126 128 131 129 130 129 133
55 66 74 78 87 93 98 107 118 129 135 136 134 130 128 122 117 110 100 98 100 112 126 131 134 123 107 119 128 131 132 135 142 143 145 148 155 166 146 139 138 132 129 130 129 127 125 124 130 137 151 182 215 204 161 341 64 119 159 76 88 91 128 138 135 133 309 335 48 308 74 99 117 122 122 131 141 148 142 137 138 134 138 140 137 137 138 142
52 59 69 78 86 92 100 109 119 129 131 131 131 127 124 117 112 107 100 99 103 113 122 131 140 124 113 144 143 129 128 132 137 143 152 151 154 162 149 141 141 137 138 142 154 165 151 165 199 205 192 194 235 266 5 18 24 54 48 93 114 113 95 98 112 118 295 303 108 118 99 104 119 125 127 135 150 159 148 146 149 146 149 147 143 143 145 148
46 50 63 76 86 95 104 114 121 127 128 127 127 121 118 113 107 103 100 101 113 124 126 142 159 129 125 143 132 120 122 129 136 146 154 151 153 164 159 149 148 148 158 166 169 187 198 198 221 243 115 102 315 330 10 20 26 49 55 72 104 119 95 85 102 92 336 272 91 82 103 120 134 136 135 138 157 165 152 155 158 154 158 154 150 150 152 150
40 41 54 76 90 99 109 118 122 124 122 121 122 122 124 126 121 110 102 101 121 108 104 128 128 103 120 132 129 127 127 134 142 155 163 157 153 157 153 153 162 181 200 206 154 168 225 245 246 3 29 24 4 16 13 18 60 79 87 92 97 112 100 97 113 108 286 284 87 77 112 133 144 145 146 148 160 169 165 169 168 164 166 160 158 159 156 147
36 34 45 80 97 106 113 116 119 120 118 117 120 120 106 107 116 118 112 105 97 95 99 103 88 95 115 129 138 143 145 147 152 164 165 157 162 166 159 168 197 209 188 224 141 157 224 267 3 34 27 18 19 103 139 117 102 96 91 103 107 94 96 103 112 116 253 283 114 134 145 136 143 145 153 162 169 177 177 177 174 171 171 166 165 164 154 141
32 31 46 89 100 108 113 113 116 118 117 115 111 95 43 78 101 111 121 108 87 85 98 92 87 94 103 128 144 151 167 166 156 165 170 165 186 201 168 188 234 234 147 200 217 182 214 265 35 49 53 76 125 155 170 149 120 98 92 110 97 92 112 122 134 145 222 266 128 160 180 138 142 149 161 177 184 185 184 184 180 176 176 174 171 167 156 147
30 34 54 88 94 98 106 112 116 117 117 114 106 98 90 94 104 105 109 116 93 75 80 83 92 109 117 132 131 154 184 184 158 171 187 178 193 218 198 212 253 261 205 220 244 280 273 53 56 81 118 132 145 162 177 157 126 71 68 65 84 118 170 118 140 170 195 246 138 169 183 144 154 167 175 190 195 191 190 192 191 189 186 180 176 171 163 158
31 37 55 78 81 82 98 110 113 113 111 112 112 115 113 97 99 101 89 122 113 80 71 85 88 104 124 138 134 173 191 196 162 173 188 187 187 202 213 237 262 246 243 250 274 289 324 64 83 124 156 177 158 165 189 177 103 66 52 35 74 127 267 44 126 161 168 166 171 186 188 162 175 185 182 188 196 196 196 199 200 200 197 190 183 178 172 168
30 37 49 65 74 81 101 106 101 106 103 104 110 120 119 98 91 105 109 141 126 94 87 103 93 91 106 130 128 164 197 187 189 176 183 194 194 194 213 232 253 265 295 315 290 292 356 68 105 220 196 190 176 174 207 258 91 98 71 49 82 118 112 103 141 176 181 151 159 206 220 149 167 188 184 176 189 197 196 201 204 201 198 197 194 187 180 175
26 36 44 56 73 87 97 93 96 101 78 75 131 129 121 103 91 100 169 171 126 75 86 124 117 103 101 98 88 182 208 171 154 204 195 198 202 234 246 183 218 295 21 337 294 308 60 72 237 250 197 178 200 183 201 265 282 107 100 106 117 122 126 138 171 219 278 94 129 224 278 111 157 187 182 173 187 196 194 202 205 202 199 200 198 193 187 181
22 32 43 54 67 78 72 83 118 78 36 196 168 137 121 114 95 73 225 164 115 26 60 122 110 104 106 87 63 211 192 110 47 198 199 199 193 233 252 190 198 221 101 264 277 89 109 142 196 218 191 179 201 154 172 249 307 86 129 159 141 137 141 157 212 286 34 88 147 206 272 292 157 168 174 179 190 195 196 203 204 203 202 200 198 195 190 186
20 24 38 49 52 56 61 79 88 13 221 182 163 140 134 133 96 21 215 141 93 337 120 104 105 108 89 26 247 238 185 294 269 142 176 204 192 220 245 249 293 170 164 248 309 91 124 279 181 184 189 168 69 61 144 203 1 100 150 169 146 148 148 168 262 32 54 214 155 152 235 261 141 135 166 184 196 203 202 204 203 202 201 198 197 195 190 187
18 17 29 42 40 44 54 49 31 220 187 169 160 149 145 137 73 263 210 119 61 282 120 95 133 134 330 245 191 203 222 233 246 112 159 201 194 224 268 307 302 241 186 251 295 80 85 340 311 206 233 105 84 89 143 185 69 125 160 157 142 159 157 195 271 33 182 236 70 91 236 273 127 132 165 185 203 214 207 205 203 200 199 197 196 194 190 187
13 13 23 32 32 36 43 34 19 191 174 165 161 149 143 147 211 209 179 111 20 103 110 145 210 229 277 230 183 177 207 209 188 138 160 182 190 213 287 20 253 252 198 227 263 75 89 92 112 335 39 96 111 107 116 106 114 139 162 156 153 170 179 226 256 233 227 153 82 76 261 274 192 123 153 179 201 214 207 201 199 198 198 196 194 192 191 187
5 10 19 24 26 33 36 24 358 166 158 160 155 149 158 187 241 200 149 152 275 77 128 163 176 230 299 353 201 189 212 192 178 192 181 168 189 200 213 201 212 234 208 189 167 123 130 142 128 99 107 125 125 113 106 121 138 157 179 175 184 182 188 219 201 218 259 79 81 81 240 253 259 97 130 163 176 195 205 196 190 195 197 193 192 192 190 188
359 7 18 26 29 33 32 20 168 159 156 157 154 165 203 196 211 154 119 184 223 83 156 187 76 326 334 326 242 215 233 187 177 216 219 190 201 201 214 223 228 238 221 137 154 159 148 129 119 124 147 163 144 119 121 141 164 197 217 209 233 225 158 219 163 171 32 64 57 349 208 238 255 81 125 169 182 191 204 204 192 194 196 191 190 190 189 187
354 5 23 31 31 36 29 27 157 171 164 160 163 194 235 207 163 76 117 175 204 46 246 271 322 313 302 281 217 191 235 198 170 205 219 221 236 211 201 238 275 276 289 357 279 183 141 123 150 158 163 190 202 162 143 162 195 218 231 242 283 351 16 9 43 52 55 78 70 103 200 239 217 115 116 158 182 188 201 217 211 200 196 191 188 187 187 187
352 5 28 32 29 36 26 30 155 177 167 165 185 208 218 200 136 94 147 142 97 251 236 303 311 284 266 268 197 139 214 216 176 201 205 211 235 222 202 210 227 250 263 262 303 306 333 110 163 173 141 180 213 299 3 118 179 200 272 289 301 341 350 1 22 22 24 69 102 140 218 314 3 170 136 117 149 197 218 224 216 205 197 190 187 186 185 185
352 8 28 26 29 35 25 32 146 175 169 177 217 209 193 183 150 164 158 122 169 215 220 274 292 270 216 218 190 157 208 213 171 211 224 218 241 240 222 202 203 224 248 238 152 217 299 61 132 132 88 179 200 272 298 275 148 150 254 262 299 351 348 354 5 1 346 324 107 157 244 354 68 157 162 175 208 224 232 223 206 196 188 184 186 186 184 184
357 17 20 15 28 34 31 37 123 170 175 200 224 195 177 99 109 156 130 6 214 317 286 238 246 257 198 173 172 164 199 234 185 217 224 228 259 249 240 232 197 210 229 239 193 216 291 74 123 148 170 188 206 172 209 290 37 151 215 216 50 352 316 312 260 228 280 283 45 10 302 70 124 147 161 209 220 209 203 201 192 184 175 175 182 184 183 183
354 20 13 9 31 35 42 43 97 166 184 223 223 163 76 63 57 111 121 256 345 333 283 236 155 264 220 170 170 159 168 193 204 227 216 207 240 231 232 236 196 211 229 246 258 232 289 87 129 175 180 160 192 186 167 301 306 191 176 87 114 265 286 291 283 242 278 324 46 19 339 353 65 95 152 181 194 187 182 177 173 171 169 171 178 182 183 183
338 7 8 8 49 44 49 45 76 164 193 229 187 127 309 130 97 89 125 220 260 271 265 240 117 264 246 219 181 145 168 189 188 221 233 201 188 210 232 211 176 213 235 242 237 173 262 253 134 180 182 137 174 206 168 171 250 294 10 92 214 274 279 191 299 325 339 350 17 8 337 342 24 28 66 154 176 180 175 170 169 169 171 174 177 181 183 182
298 228 229 342 69 66 61 50 70 168 199 221 170 149 237 139 141 191 232 241 256 261 252 261 285 195 204 249 254 135 189 218 190 211 234 209 186 218 265 223 159 168 205 228 228 154 235 289 137 158 157 146 177 218 208 159 181 248 250 192 232 313 343 352 332 323 326 334 343 346 341 38 52 17 2 34 161 179 177 177 181 176 174 177 177 178 181 181
263 222 203 185 131 102 75 59 85 174 191 203 148 110 106 185 179 207 238 251 264 272 264 271 256 207 217 250 261 184 204 258 256 231 223 198 197 205 222 236 183 153 173 210 220 171 199 278 135 137 151 185 192 209 256 196 164 202 212 204 204 215 290 295 283 305 320 328 342 342 332 19 57 24 354 14 133 182 184 182 187 181 175 176 177 177 178 179
231 221 190 168 156 129 108 88 86 65 177 133 82 103 95 328 300 210 220 243 255 264 284 283 267 268 279 256 238 223 192 249 254 243 214 199 214 209 152 246 204 155 168 199 204 193 207 256 208 144 173 215 179 121 319 311 291 253 239 245 244 227 266 282 255 224 308 322 340 334 319 351 59 57 8 9 139 191 190 182 184 181 174 174 175 174 175 177
223 220 175 157 138 134 199 227 91 358 271 102 69 13 21 312 278 217 204 227 244 242 245 263 259 261 264 245 236 247 232 226 235 244 234 214 227 119 111 176 198 182 193 198 147 118 334 275 239 199 196 192 79 88 354 311 288 271 263 269 279 261 270 293 320 343 306 309 326 304 303 9 77 81 31 36 174 214 185 177 182 178 172 172 172 170 172 176
225 222 171 158 127 128 233 238 162 233 252 80 45 272 260 267 260 250 219 206 226 233 223 239 241 240 247 244 250 260 251 245 252 279 297 232 187 62 87 171 200 208 215 204 125 139 220 262 245 254 214 129 111 132 162 257 252 250 240 236 254 256 270 295 323 331 304 292 314 299 306 33 99 112 65 99 197 207 173 176 180 173 168 171 170 169 171 174
222 221 189 184 130 153 243 249 222 230 138 112 253 260 232 256 263 276 265 222 227 241 237 244 239 229 232 242 254 277 299 281 278 301 304 266 107 67 58 191 200 204 204 297 135 169 193 237 236 262 247 194 185 178 175 185 216 244 247 217 236 242 239 262 289 279 276 316 336 310 317 18 76 123 162 173 197 183 158 168 174 169 169 171 169 170 172 172
210 209 205 215 165 196 249 277 288 268 211 225 278 316 284 236 235 283 296 275 259 261 258 270 278 249 236 234 245 261 271 269 283 287 279 239 120 82 65 174 205 211 168 48 194 175 197 247 229 267 279 261 263 252 177 215 206 222 227 206 223 224 212 220 257 254 252 354 302 290 326 357 2 13 165 172 202 186 150 155 167 167 170 172 170 170 172 174
214 211 201 200 194 223 222 142 267 267 251 254 269 258 267 269 245 293 295 267 248 288 279 282 290 265 244 238 243 234 212 219 285 297 277 187 131 87 76 150 178 157 118 130 179 177 213 261 237 272 287 297 322 358 23 314 276 229 186 187 206 216 214 234 264 281 325 309 278 352 19 346 343 357 17 82 202 199 162 161 166 161 166 171 171 172 173 176
218 222 207 191 191 218 214 189 219 249 251 259 266 182 232 294 306 290 277 251 339 324 290 278 268 259 248 240 242 217 173 166 216 270 272 223 123 102 103 130 130 123 126 144 169 186 247 250 218 261 277 308 337 1 33 278 279 290 208 175 179 192 208 232 259 306 341 295 296 45 29 332 344 357 351 14 182 201 175 175 170 158 162 169 170 173 174 177
210 210 212 217 212 216 212 198 212 228 214 222 248 221 227 256 301 318 285 292 316 330 312 284 257 262 269 262 255 215 185 180 193 226 236 209 162 141 137 128 124 142 161 163 162 225 270 252 148 239 251 314 2 349 207 248 262 276 256 198 180 191 204 231 259 283 288 277 306 17 352 318 337 341 337 19 104 192 152 162 162 154 161 166 168 175 178 179
207 53 167 205 225 241 82 110 168 218 219 217 227 223 226 242 275 345 313 315 333 63 25 324 304 308 304 285 271 234 212 200 188 210 213 196 185 173 163 140 142 165 181 165 148 283 289 222 136 221 222 161 150 181 211 233 239 239 238 226 213 216 220 242 264 272 262 272 293 323 304 296 313 332 351 53 99 149 137 151 161 162 166 169 173 179 182 183
165 61 148 203 217 154 113 127 175 218 209 203 221 218 218 231 259 3 312 310 322 334 358 340 320 314 308 284 255 239 256 268 156 181 201 191 191 205 195 148 154 177 183 172 151 182 273 224 138 224 229 168 152 191 217 237 259 261 250 234 231 240 241 245 254 243 247 269 279 282 283 282 294 64 41 101 149 173 166 166 172 174 174 176 180 185 187 188
132 118 98 232 219 167 163 175 201 236 221 207 214 197 194 207 59 15 319 294 288 284 300 314 309 299 277 247 229 229 359 339 327 38 184 195 224 252 210 166 183 185 172 173 181 184 225 211 158 218 238 167 150 199 222 240 261 257 252 240 226 236 245 240 234 222 240 277 276 253 277 308 95 111 140 160 180 196 191 179 179 182 181 183 187 190 190 191
117 123 76 278 234 183 199 191 191 231 236 209 206 187 180 147 82 62 4 302 281 266 274 293 296 287 243 216 200 354 342 311 304 342 165 175 302 327 275 143 187 209 165 163 181 199 220 211 173 216 248 158 144 195 233 239 249 239 220 314 226 242 258 243 230 224 233 261 277 276 316 16 71 128 184 174 192 207 203 194 191 189 187 188 192 194 193 192
Height
1487 1487 1487 1487 1487 1487 1487 1487 1487 1487 1487 1488 1488 1488 1489 1490 1491 1492 1492 1492 1493 1495 1496 1498 1500 1501 1503 1504 1505 1506 1507 1507 1508 1509 1510 1511 1512 1512 1513 1513 1514 1515 1515 1516 1518 1519 1520 1520 1521 1521 1521 1521 1521 1521 1522 1523 1523 1520 1517 1516 1513 1512 1518 1520 1521 1522 1522 1523 1526 1529 1530 1529 1530 1533 1534 1534 1534 1535 1536 1537 1537 1538 1539 1540 1542 1543 1544 1545
1486 1486 1487 1487 1487 1487 1486 1487 1487 1486 1487 1487 1487 1487 1488 1489 1491 1492 1492 1492 1493 1494 1496 1498 1500 1501 1503 1503 1504 1505 1506 1507 1508 1509 1510 1510 1511 1513 1513 1514 1515 1515 1516 1518 1520 1520 1521 1521 1521 1521 1520 1521 1521 1521 1522 1523 1523 1519 1517 1515 1514 1517 1523 1525 1525 1525 1525 1526 1528 1530 1531 1531 1531 1533 1534 1533 1533 1535 1535 1536 1538 1540 1542 1542 1544 1545 1546 1546
1486 1486 1486 1486 1486 1486 1486 1486 1486 1486 1486 1486 1486 1487 1488 1489 1491 1491 1491 1491 1492 1494 1496 1498 1499 1501 1502 1503 1504 1505 1506 1507 1509 1510 1510 1510 1511 1513 1514 1514 1515 1516 1517 1520 1521 1521 1521 1521 1521 1520 1520 1519 1520 1521 1521 1522 1522 1521 1520 1517 1519 1524 1526 1527 1528 1528 1528 1529 1529 1531 1532 1533 1534 1534 1535 1536 1534 1533 1534 1536 1539 1541 1543 1544 1546 1546 1546 1546
1486 1486 1486 1486 1485 1485 1485 1486 1486 1485 1485 1485 1486 1487 1488 1489 1490 1491 1491 1491 1492 1494 1496 1497 1499 1500 1501 1502 1503 1504 1505 1507 1509 1511 1511 1511 1512 1513 1514 1515 1516 1517 1518 1520 1520 1520 1521 1521 1521 1520 1519 1518 1520 1521 1520 1522 1523 1523 1523 1522 1524 1526 1526 1529 1530 1529 1530 1530 1530 1532 1533 1534 1536 1536 1536 1538 1536 1534 1536 1539 1541 1541 1542 1545 1547 1547 1546 1546
1486 1486 1486 1486 1485 1485 1485 1485 1485 1485 1484 1484 1485 1487 1488 1489 1491 1491 1491 1491 1492 1494 1495 1497 1498 1500 1501 1502 1503 1504 1504 1506 1509 1511 1511 1512 1512 1514 1515 1516 1517 1517 1518 1520 1520 1520 1521 1521 1521 1520 1518 1517 1519 1521 1521 1524 1524 1524 1526 1527 1527 1527 1527 1530 1531 1531 1532 1531 1531 1533 1534 1536 1537 1537 1538 1539 1540 1539 1539 1541 1542 1541 1542 1545 1547 1548 1547 1547
1487 1486 1486 1485 1485 1485 1485 1485 1485 1484 1484 1484 1485 1487 1488 1489 1491 1491 1491 1491 1492 1493 1495 1496 1498 1499 1500 1501 1502 1503 1503 1504 1510 1511 1511 1512 1513 1514 1515 1516 1517 1518 1519 1520 1521 1521 1521 1521 1520 1518 1517 1517 1519 1521 1523 1525 1524 1525 1528 1529 1529 1528 1529 1531 1532 1533 1533 1532 1532 1534 1536 1537 1537 1537 1538 1538 1539 1541 1541 1542 1542 1542 1543 1545 1547 1548 1548 1548
1487 1486 1486 1485 1485 1485 1485 1485 1485 1484 1484 1484 1485 1487 1488 1490 1491 1491 1491 1491 1492 1493 1494 1496 1497 1499 1500 1501 1503 1504 1503 1505 1510 1511 1512 1513 1514 1515 1516 1517 1518 1518 1519 1520 1521 1521 1521 1521 1519 1518 1517 1519 1521 1522 1524 1525 1524 1525 1528 1531 1531 1531 1531 1532 1533 1534 1534 1534 1534 1536 1537 1537 1535 1535 1537 1538 1539 1541 1542 1543 1543 1543 1545 1546 1547 1547 1548 1549
1487 1487 1486 1486 1485 1485 1485 1485 1485 1484 1484 1484 1485 1487 1489 1490 1491 1491 1491 1491 1492 1493 1494 1496 1497 1499 1500 1501 1502 1503 1504 1507 1510 1511 1512 1513 1514 1516 1516 1518 1518 1519 1520 1521 1521 1521 1521 1520 1519 1518 1517 1520 1522 1522 1524 1524 1525 1526 1529 1532 1532 1532 1533 1534 1534 1535 1535 1536 1537 1537 1537 1536 1536 1536 1538 1539 1540 1542 1542 1544 1544 1544 1545 1546 1547 1548 1549 1550
1488 1487 1487 1486 1486 1485 1485 1485 1484 1484 1484 1484 1486 1488 1489 1490 1491 1491 1490 1491 1492 1493 1494 1495 1497 1499 1499 1501 1500 1501 1505 1509 1510 1511 1513 1514 1515 1516 1517 1518 1519 1519 1520 1521 1521 1521 1520 1519 1520 1519 1518 1521 1522 1523 1524 1524 1526 1528 1530 1532 1532 1533 1534 1535 1535 1536 1536 1537 1537 1537 1537 1538 1537 1538 1540 1541 1542 1542 1543 1544 1545 1545 1545 1547 1548 1549 1550 1551
1489 1488 1487 1486 1486 1485 1485 1485 1484 1484 1484 1485 1487 1488 1490 1491 1491 1491 1491 1491 1492 1493 1494 1496 1497 1498 1499 1500 1499 1502 1507 1510 1511 1512 1513 1514 1516 1516 1518 1519 1519 1520 1521 1521 1521 1521 1520 1520 1521 1520 1520 1521 1522 1524 1524 1524 1527 1530 1531 1532 1532 1533 1535 1535 1536 1537 1537 1537 1537 1537 1538 1539 1538 1538 1541 1544 1544 1543 1544 1545 1545 1546 1547 1548 1549 1550 1551 1552
1489 1488 1487 1486 1485 1485 1485 1485 1484 1484 1485 1486 1488 1490 1491 1491 1491 1491 1491 1492 1493 1494 1495 1496 1497 1498 1499 1500 1499 1503 1509 1510 1511 1513 1514 1515 1516 1517 1518 1519 1519 1520 1521 1521 1520 1521 1521 1521 1521 1520 1520 1522 1524 1525 1526 1527 1528 1530 1531 1532 1533 1533 1535 1536 1536 1537 1536 1537 1538 1538 1540 1540 1540 1539 1540 1544 1545 1544 1545 1546 1547 1548 1549 1550 1550 1551 1552 1553
1489 1488 1487 1486 1486 1485 1485 1485 1485 1486 1487 1488 1489 1491 1491 1491 1491 1491 1491 1492 1493 1494 1495 1496 1497 1498 1499 1500 1501 1505 1509 1510 1511 1513 1514 1516 1517 1518 1519 1519 1520 1520 1521 1521 1520 1520 1521 1522 1521 1520 1520 1522 1525 1526 1528 1529 1529 1530 1530 1531 1534 1533 1534 1536 1536 1537 1536 1537 1539 1539 1543 1542 1541 1542 1541 1543 1544 1545 1546 1547 1548 1549 1550 1551 1551 1552 1553 1554
1489 1488 1487 1487 1486 1486 1486 1486 1486 1487 1488 1489 1490 1491 1491 1491 1491 1492 1492 1493 1494 1494 1495 1496 1497 1499 1500 1502 1504 1507 1509 1510 1512 1513 1514 1516 1517 1518 1518 1519 1519 1519 1520 1520 1520 1520 1521 1522 1522 1521 1522 1522 1525 1526 1527 1529 1529 1530 1529 1529 1532 1532 1534 1535 1535 1536 1535 1538 1539 1540 1546 1546 1543 1544 1543 1543 1544 1545 1546 1547 1549 1549 1550 1551 1552 1553 1553 1554
1490 1489 1488 1487 1487 1487 1487 1487 1488 1488 1489 1490 1491 1492 1491 1492 1492 1492 1493 1493 1494 1495 1495 1497 1498 1500 1501 1504 1507 1508 1509 1511 1512 1514 1515 1516 1516 1517 1518 1518 1519 1519 1520 1520 1520 1520 1521 1522 1522 1522 1523 1523 1525 1527 1527 1528 1527 1528 1529 1528 1526 1529 1534 1535 1535 1535 1534 1537 1538 1541 1547 1547 1545 1545 1545 1545 1545 1545 1546 1547 1549 1550 1551 1551 1552 1553 1554 1554
1491 1489 1489 1488 1488 1488 1488 1488 1489 1490 1490 1491 1491 1492 1492 1492 1492 1493 1493 1494 1494 1495 1496 1498 1499 1500 1502 1506 1508 1509 1510 1511 1513 1514 1515 1516 1516 1517 1517 1518 1519 1519 1520 1520 1520 1521 1522 1522 1521 1522 1524 1524 1526 1525 1525 1526 1525 1527 1532 1529 1524 1526 1534 1535 1534 1534 1533 1535 1536 1541 1544 1543 1544 1545 1545 1546 1546 1546 1547 1548 1549 1550 1551 1552 1552 1553 1554 1556
1491 1491 1490 1489 1489 1489 1489 1489 1490 1490 1491 1491 1492 1492 1492 1492 1492 1493 1494 1495 1495 1496 1497 1498 1500 1500 1502 1506 1509 1510 1511 1512 1513 1514 1515 1516 1517 1517 1517 1518 1519 1519 1520 1520 1520 1521 1522 1522 1522 1523 1524 1525 1523 1520 1525 1527 1522 1523 1526 1526 1525 1526 1531 1534 1534 1534 1533 1533 1534 1536 1538 1542 1544 1544 1546 1546 1546 1547 1547 1548 1550 1551 1552 1552 1553 1554 1555 1557
1493 1492 1491 1490 1490 1490 1490 1490 1491 1491 1492 1492 1492 1492 1492 1493 1493 1494 1495 1495 1496 1497 1498 1499 1501 1501 1503 1507 1509 1510 1511 1512 1513 1513 1514 1515 1517 1517 1517 1518 1519 1520 1520 1520 1521 1521 1522 1523 1522 1522 1521 1521 1519 1518 1529 1532 1522 1520 1519 1522 1527 1527 1529 1532 1533 1534 1532 1532 1534 1531 1533 1541 1544 1543 1546 1547 1546 1547 1547 1549 1550 1551 1552 1552 1553 1554 1555 1557
1494 1493 1492 1491 1491 1491 1491 1491 1492 1492 1492 1492 1493 1493 1493 1493 1494 1494 1496 1496 1497 1499 1500 1501 1501 1503 1507 1509 1508 1509 1510 1511 1512 1513 1514 1515 1516 1518 1518 1518 1519 1519 1520 1520 1521 1521 1521 1522 1521 1519 1518 1519 1518 1516 1527 1530 1521 1521 1521 1522 1527 1528 1528 1531 1534 1534 1531 1531 1531 1530 1532 1538 1541 1542 1545 1546 1547 1547 1547 1549 1550 1551 1552 1552 1553 1554 1555 1556
1495 1494 1493 1492 1492 1492 1492 1492 1492 1493 1493 1493 1494 1494 1494 1495 1495 1496 1497 1498 1499 1499 1500 1501 1501 1500 1504 1507 1507 1509 1510 1511 1512 1513 1514 1514 1516 1518 1518 1518 1518 1518 1519 1518 1519 1519 1519 1519 1518 1516 1514 1516 1517 1514 1520 1521 1517 1519 1521 1521 1526 1529 1530 1532 1533 1534 1532 1531 1531 1531 1533 1537 1540 1541 1543 1545 1546 1546 1546 1548 1550 1551 1552 1552 1552 1553 1555 1556
1496 1495 1494 1493 1493 1493 1493 1493 1493 1493 1494 1494 1494 1494 1495 1495 1494 1496 1497 1498 1499 1498 1498 1500 1501 1499 1501 1506 1508 1509 1509 1511 1512 1513 1514 1514 1515 1517 1517 1518 1517 1517 1516 1514 1515 1517 1517 1517 1515 1513 1513 1514 1515 1515 1516 1516 1515 1518 1520 1523 1525 1527 1532 1533 1532 1533 1533 1533 1534 1534 1533 1535 1538 1539 1541 1544 1545 1545 1546 1548 1549 1550 1551 1551 1552 1553 1554 1556
1497 1496 1495 1494 1494 1493 1493 1494 1494 1494 1494 1494 1494 1494 1494 1493 1492 1494 1497 1498 1499 1498 1499 1501 1501 1501 1502 1505 1507 1508 1509 1510 1512 1513 1513 1514 1515 1516 1516 1516 1516 1514 1512 1513 1514 1516 1517 1516 1512 1510 1512 1513 1513 1515 1516 1516 1517 1517 1519 1524 1525 1526 1531 1534 1533 1534 1533 1533 1536 1536 1534 1535 1536 1538 1541 1542 1543 1544 1545 1546 1547 1549 1550 1551 1552 1553 1554 1556
1498 1497 1495 1495 1494 1494 1494 1494 1494 1495 1494 1495 1494 1494 1495 1494 1493 1494 1495 1496 1499 1499 1500 1501 1502 1502 1504 1505 1506 1507 1508 1508 1510 1512 1512 1514 1515 1514 1514 1514 1513 1511 1510 1513 1514 1515 1515 1513 1509 1510 1511 1512 1513 1515 1516 1517 1516 1517 1519 1522 1524 1527 1531 1534 1534 1534 1533 1533 1535 1536 1534 1535 1536 1537 1540 1541 1542 1543 1544 1545 1546 1547 1549 1550 1551 1552 1554 1555
1499 1497 1496 1496 1495 1496 1495 1495 1495 1495 1495 1495 1494 1495 1495 1494 1494 1495 1495 1495 1498 1501 1501 1502 1503 1504 1504 1505 1506 1506 1506 1505 1507 1510 1511 1512 1513 1513 1513 1512 1510 1511 1511 1512 1512 1513 1512 1510 1509 1510 1511 1513 1515 1515 1516 1516 1515 1516 1517 1520 1524 1528 1531 1532 1533 1534 1532 1532 1534 1535 1534 1535 1537 1538 1539 1541 1541 1542 1543 1545 1545 1547 1548 1549 1551 1552 1553 1554
1500 1498 1498 1497 1497 1497 1496 1496 1496 1495 1496 1495 1495 1495 1495 1495 1495 1495 1495 1495 1498 1501 1502 1503 1503 1504 1505 1505 1506 1506 1506 1505 1506 1508 1509 1511 1512 1512 1511 1509 1509 1510 1509 1508 1511 1511 1510 1509 1509 1510 1512 1513 1515 1516 1515 1513 1515 1517 1517 1519 1523 1527 1529 1528 1530 1532 1531 1531 1531 1532 1534 1534 1535 1537 1538 1539 1540 1541 1542 1544 1545 1546 1547 1549 1550 1551 1552 1553
1501 1500 1499 1498 1499 1498 1497 1498 1497 1497 1497 1496 1496 1496 1496 1496 1496 1496 1496 1497 1499 1501 1502 1503 1503 1504 1505 1505 1506 1506 1505 1506 1507 1508 1508 1509 1510 1510 1509 1509 1510 1508 1506 1508 1510 1510 1509 1510 1510 1511 1512 1513 1515 1516 1513 1510 1514 1519 1520 1520 1521 1524 1527 1527 1529 1529 1528 1531 1529 1529 1535 1533 1529 1532 1533 1534 1537 1539 1540 1541 1542 1544 1545 1547 1548 1549 1551 1552
1502 1501 1500 1499 1499 1499 1499 1498 1497 1498 1497 1497 1497 1496 1497 1497 1496 1497 1495 1497 1503 1503 1502 1503 1504 1505 1505 1505 1506 1506 1507 1507 1506 1507 1508 1508 1509 1509 1508 1507 1508 1507 1507 1508 1508 1508 1509 1511 1511 1512 1512 1514 1515 1514 1513 1510 1511 1519 1522 1520 1521 1523 1526 1528 1528 1526 1526 1530 1529 1528 1533 1531 1527 1527 1527 1530 1534 1535 1537 1538 1539 1541 1543 1544 1546 1547 1549 1551
1502 1502 1501 1501 1500 1500 1500 1498 1499 1499 1498 1498 1497 1496 1498 1497 1497 1498 1497 1507 1513 1507 1503 1503 1503 1504 1504 1505 1505 1506 1509 1508 1505 1506 1507 1508 1509 1509 1508 1506 1506 1508 1508 1509 1511 1510 1510 1511 1512 1512 1513 1514 1514 1513 1513 1510 1511 1518 1521 1520 1521 1522 1526 1528 1525 1524 1523 1526 1528 1526 1528 1530 1527 1523 1521 1525 1531 1532 1533 1535 1536 1538 1540 1541 1543 1545 1547 1549
1503 1502 1502 1501 1501 1500 1500 1499 1499 1498 1498 1499 1497 1498 1499 1497 1499 1496 1501 1523 1523 1505 1503 1503 1502 1504 1504 1505 1505 1504 1506 1505 1505 1507 1506 1508 1508 1508 1507 1504 1504 1506 1506 1509 1513 1510 1508 1511 1512 1512 1513 1513 1513 1512 1512 1512 1515 1520 1520 1519 1520 1521 1524 1524 1522 1522 1522 1526 1529 1525 1525 1529 1526 1521 1520 1522 1527 1529 1529 1530 1532 1534 1536 1539 1541 1543 1545 1547
1504 1503 1502 1502 1501 1500 1500 1500 1499 1498 1498 1498 1498 1500 1498 1498 1501 1495 1503 1526 1519 1502 1504 1504 1502 1505 1504 1503 1504 1503 1504 1504 1504 1505 1506 1507 1507 1507 1506 1504 1504 1506 1507 1508 1508 1508 1509 1511 1510 1511 1511 1512 1513 1513 1512 1514 1516 1520 1520 1519 1521 1521 1522 1523 1522 1522 1524 1529 1531 1526 1525 1529 1524 1518 1520 1524 1525 1524 1523 1524 1526 1529 1533 1536 1538 1541 1543 1545
1504 1503 1503 1502 1501 1501 1500 1499 1499 1498 1498 1498 1499 1499 1499 1500 1500 1504 1519 1526 1512 1503 1505 1504 1504 1505 1503 1502 1501 1501 1502 1502 1503 1504 1506 1506 1507 1507 1506 1506 1505 1504 1506 1507 1507 1508 1510 1511 1511 1511 1512 1512 1514 1515 1515 1515 1516 1519 1520 1520 1522 1521 1521 1523 1520 1519 1527 1532 1531 1527 1525 1528 1527 1517 1514 1519 1519 1516 1516 1518 1521 1524 1528 1532 1535 1538 1540 1543
1504 1503 1503 1502 1502 1501 1500 1500 1499 1498 1499 1499 1500 1499 1500 1499 1498 1512 1528 1520 1508 1507 1505 1504 1505 1502 1502 1503 1504 1503 1500 1500 1501 1502 1504 1503 1505 1506 1505 1506 1505 1504 1506 1505 1507 1509 1510 1511 1512 1512 1514 1513 1514 1516 1517 1517 1517 1519 1517 1518 1523 1523 1521 1524 1522 1522 1529 1532 1528 1524 1522 1527 1530 1518 1508 1510 1511 1510 1512 1513 1515 1520 1523 1527 1532 1535 1538 1540
1504 1504 1503 1502 1502 1501 1501 1501 1499 1499 1500 1499 1501 1500 1499 1503 1507 1514 1517 1511 1511 1512 1506 1506 1504 1500 1502 1504 1505 1504 1500 1499 1500 1500 1500 1500 1502 1503 1503 1504 1503 1507 1510 1506 1506 1509 1508 1511 1512 1514 1515 1512 1513 1516 1520 1520 1518 1518 1516 1518 1524 1524 1526 1530 1526 1523 1526 1528 1525 1521 1524 1528 1522 1509 1504 1507 1507 1508 1510 1510 1512 1515 1519 1524 1528 1532 1535 1538
1505 1504 1503 1503 1502 1501 1501 1501 1499 1500 1500 1500 1502 1499 1498 1510 1518 1513 1508 1508 1513 1509 1505 1506 1502 1500 1503 1502 1502 1502 1500 1499 1498 1499 1499 1499 1502 1500 1500 1501 1500 1507 1511 1507 1507 1508 1511 1514 1513 1514 1514 1511 1510 1513 1520 1522 1518 1518 1516 1518 1523 1527 1538 1541 1530 1525 1527 1528 1523 1521 1526 1525 1514 1506 1504 1504 1506 1507 1509 1510 1512 1513 1516 1521 1525 1529 1533 1536
1505 1504 1504 1503 1502 1502 1501 1500 1500 1500 1501 1501 1501 1499 1505 1516 1517 1510 1507 1507 1508 1506 1504 1505 1502 1500 1502 1501 1500 1501 1503 1501 1496 1498 1500 1500 1503 1501 1500 1502 1501 1502 1504 1506 1508 1510 1517 1519 1513 1512 1512 1511 1510 1509 1513 1513 1513 1516 1512 1513 1519 1522 1533 1539 1533 1531 1530 1525 1522 1526 1527 1519 1516 1516 1506 1503 1506 1507 1509 1510 1511 1514 1515 1519 1523 1527 1531 1534
1505 1504 1504 1503 1502 1502 1501 1501 1500 1500 1502 1502 1499 1502 1511 1516 1510 1507 1508 1505 1504 1504 1502 1502 1502 1502 1502 1502 1499 1499 1503 1501 1497 1499 1500 1499 1501 1499 1498 1499 1499 1500 1502 1507 1510 1508 1513 1515 1509 1510 1510 1510 1511 1510 1509 1509 1514 1517 1511 1514 1519 1514 1517 1527 1529 1530 1529 1525 1523 1524 1519 1506 1507 1510 1502 1503 1507 1505 1508 1510 1510 1514 1515 1517 1522 1524 1528 1532
1505 1504 1504 1503 1503 1502 1501 1501 1500 1500 1502 1501 1501 1505 1508 1507 1505 1504 1506 1504 1503 1504 1502 1502 1503 1503 1502 1499 1498 1498 1500 1499 1499 1500 1499 1498 1498 1497 1497 1496 1495 1498 1500 1504 1507 1506 1511 1512 1508 1510 1512 1509 1511 1510 1509 1511 1516 1517 1515 1516 1515 1509 1510 1521 1530 1529 1529 1533 1525 1516 1511 1501 1501 1507 1503 1503 1506 1503 1507 1509 1508 1512 1514 1517 1520 1522 1526 1530
1505 1504 1504 1504 1503 1502 1502 1502 1500 1502 1502 1499 1503 1508 1504 1502 1503 1502 1504 1504 1503 1503 1504 1504 1506 1506 1503 1500 1498 1498 1498 1499 1499 1499 1499 1499 1498 1496 1496 1495 1494 1496 1495 1497 1501 1503 1508 1512 1509 1509 1511 1510 1510 1511 1510 1510 1512 1514 1515 1513 1509 1512 1514 1517 1528 1532 1530 1534 1525 1514 1514 1507 1507 1513 1507 1502 1505 1505 1505 1506 1508 1511 1514 1517 1519 1522 1525 1528
1505 1505 1504 1504 1503 1503 1502 1502 1501 1502 1502 1500 1504 1508 1504 1502 1503 1502 1503 1504 1504 1504 1504 1505 1507 1506 1506 1505 1500 1496 1498 1499 1498 1499 1499 1499 1499 1496 1494 1496 1495 1495 1495 1496 1500 1502 1503 1511 1512 1507 1509 1512 1511 1511 1512 1511 1510 1510 1511 1508 1510 1521 1522 1517 1526 1532 1532 1535 1529 1516 1513 1509 1507 1508 1504 1502 1505 1505 1504 1505 1507 1510 1512 1516 1518 1521 1524 1526
1505 1505 1505 1504 1504 1503 1502 1502 1502 1501 1501 1501 1504 1506 1504 1503 1503 1504 1504 1503 1503 1504 1504 1505 1505 1504 1505 1504 1499 1496 1498 1498 1496 1498 1499 1498 1500 1498 1493 1495 1496 1497 1497 1496 1499 1501 1501 1511 1515 1509 1507 1511 1510 1510 1512 1511 1511 1510 1510 1509 1509 1515 1516 1514 1518 1521 1525 1532 1530 1522 1517 1510 1504 1501 1500 1502 1502 1502 1505 1506 1506 1508 1511 1514 1516 1519 1522 1525
1505 1505 1505 1504 1504 1503 1503 1503 1501 1500 1500 1502 1503 1504 1504 1504 1503 1503 1505 1504 1503 1503 1503 1503 1503 1504 1503 1500 1498 1497 1497 1497 1495 1497 1497 1495 1498 1499 1494 1494 1495 1496 1497 1497 1498 1500 1501 1508 1514 1511 1509 1511 1510 1507 1506 1505 1507 1509 1510 1511 1511 1511 1512 1513 1513 1511 1515 1524 1527 1530 1527 1511 1500 1500 1501 1501 1501 1501 1503 1504 1505 1507 1510 1513 1516 1518 1521 1524
1505 1504 1504 1504 1504 1503 1504 1502 1502 1501 1501 1502 1503 1504 1505 1505 1503 1503 1504 1504 1503 1502 1502 1502 1501 1502 1502 1501 1500 1497 1497 1499 1497 1494 1494 1493 1495 1497 1496 1494 1494 1495 1497 1499 1498 1499 1501 1504 1508 1511 1512 1510 1505 1501 1501 1502 1502 1504 1505 1506 1506 1508 1511 1519 1522 1513 1509 1517 1520 1527 1530 1513 1497 1499 1501 1499 1501 1501 1501 1503 1505 1506 1509 1513 1515 1518 1520 1523
1504 1503 1503 1504 1503 1503 1503 1502 1503 1503 1502 1502 1504 1504 1505 1505 1503 1502 1503 1503 1503 1501 1502 1502 1501 1501 1501 1500 1500 1497 1497 1499 1496 1493 1493 1492 1491 1494 1495 1495 1495 1494 1495 1498 1497 1498 1500 1501 1505 1508 1505 1503 1502 1501 1503 1504 1502 1501 1503 1502 1502 1504 1508 1517 1526 1517 1510 1514 1514 1516 1524 1513 1498 1499 1501 1500 1501 1501 1502 1504 1505 1506 1510 1512 1515 1518 1520 1523
1503 1502 1503 1504 1503 1503 1503 1502 1503 1503 1501 1502 1504 1504 1505 1504 1503 1502 1501 1502 1502 1501 1501 1501 1499 1499 1499 1498 1498 1497 1496 1496 1494 1492 1492 1492 1491 1492 1494 1495 1496 1494 1494 1497 1497 1499 1501 1502 1506 1506 1500 1498 1501 1501 1502 1503 1504 1503 1502 1501 1502 1504 1504 1507 1512 1511 1512 1515 1512 1516 1522 1512 1499 1499 1500 1500 1502 1502 1504 1505 1506 1508 1510 1512 1515 1517 1520 1522
1503 1503 1503 1503 1503 1503 1503 1502 1503 1502 1502 1503 1504 1503 1504 1504 1503 1502 1501 1501 1501 1500 1501 1500 1498 1498 1498 1497 1498 1497 1496 1498 1496 1492 1492 1492 1492 1493 1495 1494 1495 1494 1494 1497 1496 1499 1503 1504 1506 1512 1511 1510 1509 1507 1507 1506 1505 1503 1500 1501 1502 1502 1504 1507 1507 1509 1515 1514 1512 1520 1523 1507 1497 1498 1498 1499 1501 1501 1503 1505 1506 1508 1510 1512 1515 1517 1519 1522
1503 1503 1503 1503 1503 1503 1503 1502 1502 1502 1503 1504 1504 1504 1504 1503 1503 1503 1502 1500 1500 1499 1500 1499 1497 1497 1496 1497 1498 1496 1496 1499 1498 1494 1492 1492 1492 1493 1495 1494 1495 1493 1494 1497 1495 1496 1501 1502 1504 1513 1519 1521 1519 1515 1511 1507 1502 1500 1500 1502 1503 1502 1505 1508 1508 1510 1517 1516 1512 1515 1515 1504 1496 1496 1496 1498 1500 1501 1503 1505 1506 1508 1510 1512 1514 1516 1519 1521
1502 1502 1502 1502 1503 1503 1503 1503 1503 1503 1503 1504 1505 1505 1505 1504 1503 1503 1502 1500 1499 1499 1499 1498 1497 1497 1497 1497 1497 1496 1495 1497 1499 1497 1493 1491 1491 1493 1494 1495 1495 1494 1495 1497 1496 1496 1500 1500 1501 1506 1508 1510 1510 1507 1505 1503 1500 1500 1502 1503 1504 1504 1504 1505 1507 1508 1510 1513 1510 1506 1507 1507 1500 1496 1496 1497 1499 1500 1502 1504 1506 1507 1510 1512 1513 1516 1518 1520
1502 1501 1500 1501 1502 1502 1502 1503 1503 1503 1502 1504 1505 1504 1505 1505 1503 1502 1502 1500 1500 1500 1499 1498 1497 1497 1498 1498 1497 1496 1495 1496 1499 1498 1494 1491 1491 1493 1495 1494 1495 1495 1496 1496 1496 1497 1500 1502 1502 1503 1503 1502 1502 1503 1503 1504 1502 1500 1500 1502 1504 1505 1506 1507 1509 1507 1505 1511 1512 1504 1504 1508 1503 1498 1497 1498 1498 1499 1500 1502 1504 1506 1509 1511 1513 1515 1517 1519
1501 1501 1501 1502 1501 1500 1501 1501 1502 1502 1503 1504 1504 1504 1505 1505 1504 1504 1503 1500 1499 1499 1500 1500 1499 1497 1497 1497 1496 1496 1495 1495 1497 1497 1494 1492 1491 1492 1494 1494 1494 1496 1495 1496 1496 1497 1498 1501 1503 1503 1504 1503 1503 1504 1504 1503 1502 1500 1499 1501 1502 1504 1507 1507 1506 1503 1504 1510 1510 1504 1504 1507 1503 1498 1497 1497 1498 1499 1500 1502 1504 1506 1508 1510 1512 1514 1515 1517
1501 1501 1502 1502 1501 1500 1501 1502 1503 1503 1503 1503 1504 1504 1505 1504 1504 1505 1504 1502 1501 1499 1501 1503 1500 1496 1496 1496 1496 1496 1495 1495 1497 1496 1492 1492 1492 1491 1493 1494 1494 1494 1494 1495 1497 1497 1498 1500 1502 1503 1503 1503 1503 1504 1504 1502 1501 1500 1498 1499 1500 1501 1502 1503 1502 1502 1504 1505 1503 1502 1506 1505 1499 1496 1496 1497 1499 1499 1501 1503 1504 1505 1507 1509 1510 1512 1514 1516
1502 1502 1502 1502 1502 1501 1502 1503 1503 1503 1502 1503 1504 1503 1503 1504 1504 1505 1504 1505 1505 1501 1500 1503 1501 1498 1497 1496 1496 1496 1493 1492 1494 1494 1491 1492 1493 1491 1491 1492 1492 1493 1494 1495 1497 1499 1500 1503 1504 1501 1502 1503 1503 1503 1503 1501 1500 1499 1497 1497 1498 1500 1501 1501 1502 1503 1505 1504 1501 1504 1507 1501 1495 1495 1496 1498 1500 1500 1501 1502 1503 1504 1506 1508 1509 1511 1512 1514
1502 1503 1503 1502 1501 1501 1503 1502 1502 1502 1501 1502 1503 1502 1503 1503 1504 1506 1505 1504 1505 1503 1501 1501 1501 1500 1499 1497 1494 1493 1491 1489 1490 1490 1489 1492 1493 1490 1489 1488 1489 1491 1494 1495 1497 1497 1499 1503 1503 1501 1504 1504 1501 1502 1503 1501 1500 1499 1498 1497 1498 1500 1501 1501 1501 1502 1503 1502 1503 1505 1503 1496 1493 1495 1496 1498 1499 1499 1500 1501 1502 1504 1505 1506 1508 1509 1511 1513
1503 1503 1503 1503 1501 1500 1501 1500 1501 1502 1501 1499 1500 1501 1503 1503 1503 1506 1508 1505 1502 1502 1501 1501 1501 1500 1498 1495 1493 1491 1491 1490 1489 1489 1489 1490 1490 1489 1488 1488 1488 1489 1491 1494 1497 1496 1496 1499 1499 1500 1505 1503 1499 1501 1502 1502 1505 1505 1499 1496 1497 1498 1498 1499 1499 1499 1499 1500 1501 1502 1497 1493 1493 1494 1495 1496 1497 1498 1498 1500 1501 1503 1504 1505 1507 1508 1509 1511